Location: Gerlach
(40.6516°N, 119.3568°W)
Time: 03:54:37
(UTC-08:00)

Vanguard 2 - All Passes

Search period start: 05 March 2024 00:00
Search period end: 15 March 2024 01:00
Orbit: 554 x 2918 km, 32.9° (Epoch: 04 March)

Date Brightness Start Highest point End Pass type
(mag) Time Alt. Az. Time Alt. Az. Time Alt. Az.
05 Mar - 15:42:03 10° SSW 15:46:22 23° SSE 15:52:23 10° E daylight
05 Mar - 17:47:34 10° WSW 17:54:04 50° S 18:04:48 10° E daylight
05 Mar - 19:54:46 10° W 20:03:20 52° S 20:17:05 10° ESE visible
05 Mar - 22:03:25 10° W 22:13:31 34° SSW 22:27:24 10° SSE visible
06 Mar - 00:16:57 10° WSW 00:23:48 14° SW 00:31:23 10° SSW visible
06 Mar - 15:56:30 10° SSW 16:01:09 29° SSE 16:07:55 10° E daylight
06 Mar - 18:02:33 10° WSW 18:09:07 52° S 18:20:01 10° ESE visible
06 Mar - 20:09:56 10° W 20:18:28 47° SSW 20:31:55 10° SE visible
06 Mar - 22:19:05 10° W 22:28:36 28° SSW 22:41:13 10° SSE visible
07 Mar - 16:11:10 10° SW 16:16:00 35° SSE 16:23:17 10° E daylight
07 Mar - 18:17:34 10° WSW 18:24:12 51° S 18:35:10 10° ESE visible
07 Mar - 20:25:10 10° W 20:33:35 41° SSW 20:46:34 10° SE visible
07 Mar - 22:35:07 10° WSW 22:43:40 22° SSW 22:54:31 10° SSE visible
08 Mar - 14:21:40 10° S 14:23:51 13° SE 14:26:22 10° ESE daylight
08 Mar - 16:25:58 10° SW 16:30:55 39° SSE 16:38:35 10° E daylight
08 Mar - 18:32:39 10° WSW 18:39:18 49° S 18:50:14 10° ESE visible
08 Mar - 20:40:30 10° W 20:48:43 35° SSW 21:00:57 10° SE visible
08 Mar - 22:51:49 10° WSW 22:58:44 16° SSW 23:06:59 10° S visible
09 Mar - 14:35:30 10° SSW 14:38:36 18° SSE 14:42:24 10° ESE daylight
09 Mar - 16:40:51 10° WSW 16:45:54 43° S 16:53:48 10° ESE daylight
09 Mar - 18:47:45 10° WSW 18:54:24 44° S 19:05:09 10° ESE visible
09 Mar - 20:56:01 10° WSW 21:03:50 29° SSW 21:15:01 10° SSE visible
09 Mar - 23:10:41 10° SW 23:13:48 11° SW 23:17:09 10° SSW visible
10 Mar - 15:49:51 10° SSW 15:53:23 23° SSE 15:57:57 10° ESE daylight
10 Mar - 17:55:48 10° WSW 18:00:54 44° S 18:08:57 10° ESE daylight
10 Mar - 20:02:55 10° WSW 20:09:30 39° SSW 20:19:56 10° SE visible
10 Mar - 22:11:48 10° WSW 22:18:57 22° SSW 22:28:37 10° SSE visible
11 Mar - 16:04:27 10° SW 16:08:15 28° SSE 16:13:19 10° ESE daylight
11 Mar - 18:10:49 10° WSW 18:15:57 43° S 18:24:01 10° ESE daylight
11 Mar - 20:18:10 10° WSW 20:24:36 33° SSW 20:34:28 10° SE visible
11 Mar - 22:28:08 10° WSW 22:34:04 17° SSW 22:41:31 10° S visible
12 Mar - 14:15:23 10° SSE 14:16:06 10° SSE 14:16:50 10° SE daylight
12 Mar - 16:19:14 10° SW 16:23:10 32° SSE 16:28:33 10° ESE daylight
12 Mar - 18:25:52 10° WSW 18:31:00 40° S 18:39:00 10° ESE daylight
12 Mar - 20:33:34 10° WSW 20:39:43 27° SSW 20:48:43 10° SSE visible
12 Mar - 22:46:00 10° SW 22:49:11 11° SSW 22:52:44 10° SSW visible
13 Mar - 14:28:36 10° S 14:30:54 15° SSE 14:33:25 10° ESE daylight
13 Mar - 16:34:06 10° WSW 16:38:07 35° S 16:43:42 10° ESE daylight
13 Mar - 18:40:58 10° WSW 18:46:04 35° S 18:53:50 10° SE daylight
13 Mar - 20:49:13 10° WSW 20:54:50 21° SSW 21:02:33 10° SSE visible
14 Mar - 14:42:51 10° SSW 14:45:45 19° SSE 14:49:00 10° ESE daylight
14 Mar - 16:49:02 10° WSW 16:53:06 36° S 16:58:47 10° ESE daylight
14 Mar - 18:56:10 10° WSW 19:01:07 30° SSW 19:08:29 10° SE daylight
14 Mar - 21:05:22 10° WSW 21:09:57 16° SSW 21:15:45 10° S visible
